[TLELIST] Archives

 

[list_settings.list_name] Current TLEs

December 27th 2022 PST

HST 1 20580U 90037B 22361.24004226 .00003175 00000-0 17219-3 0 9997 2 20580 28.4712 330.5982 0002284 319.8441 161.5685 15.11487366595662 ISS (ZARYA) 1 25544U 98067A 22361.43632584 .00010035 00000-0 18588-3 0 9991 2 25544 51.6432 99.2747 0005602 194.8008 287.2602 15.49634834375159 CXO 1 25867U 99040B 22350.50688168 .00000592 00000-0 00000-0 0 9990 2 25867 40.5464 218.6105 8981371 245.2549 0.0091 0.37815769 12485 ____________________________________________________________________ These 2-Line ...Continue Reading

[list_settings.list_name] Current TLEs

December 26th 2022 PST

HST 1 20580U 90037B 22360.17881601 .00003069 00000-0 16616-3 0 9990 2 20580 28.4713 337.6401 0002254 307.6767 147.7728 15.11480794595505 ISS (ZARYA) 1 25544U 98067A 22360.45362469 .00010331 00000-0 19125-3 0 9991 2 25544 51.6432 104.1404 0005590 189.8055 206.4927 15.49615193375001 CXO 1 25867U 99040B 22350.50688168 .00000592 00000-0 00000-0 0 9990 2 25867 40.5464 218.6105 8981371 245.2549 0.0091 0.37815769 12485 ____________________________________________________________________ These 2-Line ...Continue Reading

[list_settings.list_name] Current TLEs

December 25th 2022 PST

HST 1 20580U 90037B 22358.67259042 .00003212 00000-0 17441-3 0 9997 2 20580 28.4715 347.6342 0002238 290.0394 233.2894 15.11472577595016 ISS (ZARYA) 1 25544U 98067A 22359.36938196 .00010736 00000-0 19858-3 0 9997 2 25544 51.6426 109.5098 0005605 186.5968 277.1844 15.49593549374839 CXO 1 25867U 99040B 22350.50688168 .00000592 00000-0 00000-0 0 9990 2 25867 40.5464 218.6105 8981371 245.2549 0.0091 0.37815769 12485 ____________________________________________________________________ These 2-Line ...Continue Reading

[list_settings.list_name] Current TLEs

December 24th 2022 PST

HST 1 20580U 90037B 22357.46672514 .00003287 00000-0 17874-3 0 9998 2 20580 28.4714 355.6351 0002234 275.1757 153.6640 15.11465070594830 ISS (ZARYA) 1 25544U 98067A 22358.33569186 .00011035 00000-0 20402-3 0 9992 2 25544 51.6422 114.6281 0005660 183.4904 270.0489 15.49571289374679 CXO 1 25867U 99040B 22350.50688168 .00000592 00000-0 00000-0 0 9990 2 25867 40.5464 218.6105 8981371 245.2549 0.0091 0.37815769 12485 ____________________________________________________________________ These 2-Line ...Continue Reading

[list_settings.list_name] Current TLEs

December 23rd 2022 PST

HST 1 20580U 90037B 22356.75781075 .00003333 00000-0 18146-3 0 9997 2 20580 28.4716 0.3386 0002229 266.9801 256.8076 15.11460701594729 ISS (ZARYA) 1 25544U 98067A 22357.36873308 .00010143 00000-0 18836-3 0 9995 2 25544 51.6418 119.4169 0005669 178.7306 277.1460 15.49547624374521 CXO 1 25867U 99040B 22350.50688168 .00000592 00000-0 00000-0 0 9990 2 25867 40.5464 218.6105 8981371 245.2549 0.0091 0.37815769 12485 ____________________________________________________________________ These 2-Line ...Continue Reading

[list_settings.list_name] Current TLEs

December 22nd 2022 PST

HST 1 20580U 90037B 22356.28438799 .00003476 00000-0 18967-3 0 9996 2 20580 28.4715 3.4795 0002238 260.8096 201.8495 15.11457762594914 ISS (ZARYA) 1 25544U 98067A 22356.40185750 -.00007679 00000-0 -12884-3 0 9995 2 25544 51.6422 124.2046 0005513 174.7070 284.0480 15.49513223374376 CXO 1 25867U 99040B 22350.50688168 .00000592 00000-0 00000-0 0 9990 2 25867 40.5464 218.6105 8981371 245.2549 0.0091 0.37815769 12485 ____________________________________________________________________ These 2-Line ...Continue Reading

[list_settings.list_name] Current TLEs

December 21st 2022 PST

HST 1 20580U 90037B 22355.15278252 .00003855 00000-0 21156-3 0 9992 2 20580 28.4714 10.9876 0002269 247.2921 165.8094 15.11450383594743 ISS (ZARYA) 1 25544U 98067A 22355.43586667 .00013438 00000-0 24206-3 0 9998 2 25544 51.6433 128.9864 0003463 180.5673 285.7900 15.50112863374229 CXO 1 25867U 99040B 22350.50688168 .00000592 00000-0 00000-0 0 9990 2 25867 40.5464 218.6105 8981371 245.2549 0.0091 0.37815769 12485 ____________________________________________________________________ These 2-Line ...Continue Reading

[list_settings.list_name] Current TLEs

December 20th 2022 PST

HST 1 20580U 90037B 22353.78631414 .00003803 00000-0 20861-3 0 9997 2 20580 28.4715 20.0539 0002325 231.4505 291.6570 15.11441182594540 ISS (ZARYA) 1 25544U 98067A 22353.88816203 .00011401 00000-0 20698-3 0 9996 2 25544 51.6436 136.6505 0003556 176.0581 287.8854 15.50064531373982 CXO 1 25867U 99040B 22350.50688168 .00000592 00000-0 00000-0 0 9990 2 25867 40.5464 218.6105 8981371 245.2549 0.0091 0.37815769 12485 ____________________________________________________________________ These 2-Line ...Continue Reading

[list_settings.list_name] Current TLEs

December 19th 2022 PST

HST 1 20580U 90037B 22352.79591907 .00003260 00000-0 17738-3 0 9995 2 20580 28.4715 26.6250 0002352 219.8964 303.5990 15.11432988594128 ISS (ZARYA) 1 25544U 98067A 22353.42711160 .00011227 00000-0 20403-3 0 9992 2 25544 51.6432 138.9346 0003592 174.7295 234.7524 15.50052736373915 CXO 1 25867U 99040B 22350.50688168 .00000592 00000-0 00000-0 0 9990 2 25867 40.5464 218.6105 8981371 245.2549 0.0091 0.37815769 12485 ____________________________________________________________________ These 2-Line ...Continue Reading

[list_settings.list_name] Current TLEs

December 18th 2022 PST

HST 1 20580U 90037B 22352.18039998 .00003435 00000-0 18747-3 0 9990 2 20580 28.4714 30.7087 0002388 212.6471 195.0669 15.11429557594297 ISS (ZARYA) 1 25544U 98067A 22352.33601744 .00011326 00000-0 20593-3 0 9997 2 25544 51.6430 144.3419 0003636 171.5511 265.4478 15.50027808373742 CXO 1 25867U 99040B 22350.50688168 .00000592 00000-0 00000-0 0 9990 2 25867 40.5464 218.6105 8981371 245.2549 0.0091 0.37815769 12485 ____________________________________________________________________ These 2-Line ...Continue Reading
  • This mailing list is a public mailing list - anyone may join or leave, at any time.
  • This mailing list is announce-only.

International Space Station (ISS) / Hubble Space Telescope (HST) / Chandra X-Ray Observatory Orbital Data via EMAIL

Privacy Policy:

Private list